Location: Newark
(34.3481°N, 134.0494°E)
Time: 18:39:46
(UTC+00:00)

Vanguard 3 - Pass Details

Date: 02 February 2020
Orbit: 508 x 3263 km, 33.3° (Epoch: 25 February)

Event Time Altitude Azimuth Distance (km) Brightness Sun altitude
Rises 13:10:17 0° 286° (WNW) 7,183 12.5 -56.6°
Reaches altitude 10° 13:16:05 10° 279° (W) 5,990 11.9 -57.7°
Enters shadow 13:27:54 31° 242° (WSW) 3,849 10.5 -59.9°
Maximum altitude 13:30:39 33° 225° (SW) 3,565 - -60.4°
Drops below altitude 10° 13:40:43 10° 166° (SSE) 4,094 - -62.2°
Sets 13:43:52 0° 156° (SSE) 4,721 - -62.7°
